Regional Weather Roundup
Issued by NWS Goodland, KS

Home | Current Version | Previous Version | Graphics & Text | Print | Product List | Glossary On
Versions: 1 2 3 4 5 6 7 8 9 10 11 12 13 14 15 16 17 18 19 20 21 22 23 24 25 26 27 28 29 30 31 32 33 34 35 36 37 38 39 40 41 42 43 44 45 46 47 48 49 50
000
ASUS43 KGLD 140959
RWRGLD

GOODLAND FORECAST AREA HOURLY WEATHER ROUNDUP
NATIONAL WEATHER SERVICE GOODLAND KS
300 AM MST SUN FEB 14 2016

...OFFICIAL OBSERVATIONS...

CITY           SKY/WX    TMP DP  RH WIND       PRES   REMARKS
GOODLAND KS    CLEAR     29  23  78 W9        29.99F
HILL CITY KS   CLEAR     28  23  81 NW9       29.97F
IMPERIAL NEB   CLEAR     34  26  72 W12       29.97F
MCCOOK NEB     CLEAR     33  27  78 W16       29.95F
AKRON CO       CLEAR     32  23  69 N21       29.97F WCI  20
BURLINGTON CO  CLEAR     31  22  69 NW8       30.00F
LIMON CO       CLOUDY    25  23  92 W9        30.02F
$$

...UNOFFICIAL OBSERVATIONS...

CITY           SKY/WX    TMP DP  RH WIND       PRES   REMARKS
COLBY KS       CLEAR     34  30  86 NW13      29.99F
GOVE KS          N/A     26  32 100 MISG        N/A
LENORA KS        N/A     33  32  96 MISG        N/A
NORTON KS      CLEAR     28  23  80 W10       29.95  WCI  19
SHARON SPRINGS   N/A     32  28  84 N12         N/A
KIT CARSON CO    N/A     32  25  76 MISG        N/A
YUMA CO          N/A     32  26  78 N7          N/A
$$



USA.gov is the U.S. government's official web portal to all federal, state and local government web resources and services.